Time,TemperatureF,DewpointF,PressureIn,WindDirection,WindDirectionDegrees,WindSpeedMPH,WindSpeedGustMPH,Humidity,HourlyPrecipIn,Conditions,Clouds,dailyrainin,SoftwareType,DateUTC
2013-02-10 00:01:00,28.0,30.2,30.28,West,269,0.0,0.0,44,0.00,,,0.00,meteohub,2013-02-10 08:01:00,
2013-02-10 00:07:00,28.0,30.4,30.27,West,265,0.0,0.0,44,0.00,,,0.00,meteohub,2013-02-10 08:07:00,
2013-02-10 00:12:00,28.0,30.6,30.27,West,281,0.0,0.0,44,0.00,,,0.00,meteohub,2013-02-10 08:12:00,
2013-02-10 00:17:00,27.9,30.6,30.27,WSW,252,0.0,0.0,44,0.00,,,0.00,meteohub,2013-02-10 08:17:00,
2013-02-10 00:22:00,27.7,30.4,30.27,WSW,250,0.0,0.0,44,0.00,,,0.00,meteohub,2013-02-10 08:22:00,
2013-02-10 00:27:00,27.3,30.4,30.27,West,279,0.0,0.0,44,0.00,,,0.00,meteohub,2013-02-10 08:27:00,
2013-02-10 00:32:00,27.1,30.4,30.27,WSW,256,0.0,0.0,44,0.00,,,0.00,meteohub,2013-02-10 08:32:00,
2013-02-10 00:37:00,27.0,30.4,30.27,SW,222,0.0,0.0,44,0.00,,,0.00,meteohub,2013-02-10 08:37:00,
2013-02-10 00:42:00,26.8,30.4,30.27,West,266,0.0,0.0,44,0.00,,,0.00,meteohub,2013-02-10 08:42:00,
2013-02-10 00:47:00,26.8,30.4,30.27,WSW,249,0.0,0.0,44,0.00,,,0.00,meteohub,2013-02-10 08:47:00,
2013-02-10 00:52:00,26.8,30.4,30.27,WSW,238,0.0,0.0,44,0.00,,,0.00,meteohub,2013-02-10 08:52:00,
2013-02-10 00:57:00,26.8,30.4,30.27,North,355,0.0,0.0,44,0.00,,,0.00,meteohub,2013-02-10 08:57:00,
2013-02-10 01:03:00,26.8,30.2,30.27,NE,37,0.0,0.0,44,0.00,,,0.00,meteohub,2013-02-10 09:03:00,
2013-02-10 01:08:00,27.0,30.2,30.27,North,4,0.0,0.0,44,0.00,,,0.00,meteohub,2013-02-10 09:08:00,
2013-02-10 01:13:00,27.0,30.2,30.27,NW,312,0.0,0.0,44,0.00,,,0.00,meteohub,2013-02-10 09:13:00,
2013-02-10 01:18:00,27.1,29.7,30.27,South,186,0.0,0.0,43,0.00,,,0.00,meteohub,2013-02-10 09:18:00,
2013-02-10 01:24:00,27.3,29.7,30.27,West,261,0.0,0.0,43,0.00,,,0.00,meteohub,2013-02-10 09:24:00,
2013-02-10 01:29:00,27.5,29.5,30.27,WSW,242,0.0,0.0,43,0.00,,,0.00,meteohub,2013-02-10 09:29:00,
2013-02-10 01:34:00,27.7,29.5,30.27,WSW,257,0.0,0.0,43,0.00,,,0.00,meteohub,2013-02-10 09:34:00,
2013-02-10 01:39:00,27.7,29.5,30.27,West,260,0.0,0.0,43,0.00,,,0.00,meteohub,2013-02-10 09:39:00,
2013-02-10 01:45:00,27.9,29.5,30.26,West,274,0.0,0.0,43,0.00,,,0.00,meteohub,2013-02-10 09:45:00,
2013-02-10 01:50:00,27.9,29.5,30.26,West,277,0.0,0.0,43,0.00,,,0.00,meteohub,2013-02-10 09:50:00,
2013-02-10 01:55:00,28.0,29.5,30.26,North,356,0.0,0.0,43,0.00,,,0.00,meteohub,2013-02-10 09:55:00,
2013-02-10 02:00:00,28.0,29.3,30.26,WSW,255,0.0,0.0,43,0.00,,,0.00,meteohub,2013-02-10 10:00:00,
2013-02-10 02:05:00,28.0,29.3,30.25,WNW,283,0.0,0.0,43,0.00,,,0.00,meteohub,2013-02-10 10:05:00,
2013-02-10 02:11:00,27.9,29.3,30.25,NW,308,0.0,0.0,43,0.00,,,0.00,meteohub,2013-02-10 10:11:00,
2013-02-10 02:16:00,27.9,29.3,30.25,WSW,255,0.0,0.0,43,0.00,,,0.00,meteohub,2013-02-10 10:16:00,
2013-02-10 02:21:00,27.9,29.3,30.25,NW,316,0.0,0.0,43,0.00,,,0.00,meteohub,2013-02-10 10:21:00,
2013-02-10 02:26:00,27.9,29.1,30.26,WNW,295,0.0,0.0,43,0.00,,,0.00,meteohub,2013-02-10 10:26:00,
2013-02-10 02:31:00,27.9,29.1,30.26,NNW,348,0.0,0.0,43,0.00,,,0.00,meteohub,2013-02-10 10:31:00,
2013-02-10 02:36:00,28.0,29.1,30.25,WSW,246,0.0,0.0,43,0.00,,,0.00,meteohub,2013-02-10 10:36:00,
2013-02-10 02:42:00,28.0,29.1,30.25,West,269,0.0,0.0,43,0.00,,,0.00,meteohub,2013-02-10 10:42:00,
2013-02-10 02:47:00,28.0,29.1,30.25,SW,222,0.0,0.0,43,0.00,,,0.00,meteohub,2013-02-10 10:47:00,
2013-02-10 02:52:00,28.0,28.9,30.25,WSW,238,0.0,0.0,43,0.00,,,0.00,meteohub,2013-02-10 10:52:00,
2013-02-10 02:58:00,27.9,28.9,30.25,West,267,0.0,0.0,43,0.00,,,0.00,meteohub,2013-02-10 10:58:00,
2013-02-10 03:03:00,27.9,28.9,30.25,WNW,293,0.0,0.0,43,0.00,,,0.00,meteohub,2013-02-10 11:03:00,
2013-02-10 03:09:00,27.7,28.9,30.25,SW,236,0.0,0.0,43,0.00,,,0.00,meteohub,2013-02-10 11:09:00,
2013-02-10 03:14:00,27.7,29.1,30.25,West,280,0.0,0.0,43,0.00,,,0.00,meteohub,2013-02-10 11:14:00,
2013-02-10 03:20:00,27.7,29.1,30.24,WSW,249,0.0,0.0,43,0.00,,,0.00,meteohub,2013-02-10 11:20:00,
2013-02-10 03:25:00,27.7,29.3,30.24,West,271,0.0,0.0,43,0.00,,,0.00,meteohub,2013-02-10 11:25:00,
2013-02-10 03:30:00,27.5,29.5,30.24,WNW,291,0.0,0.0,43,0.00,,,0.00,meteohub,2013-02-10 11:30:00,
2013-02-10 03:35:00,27.5,30.0,30.23,NW,309,0.0,0.0,44,0.00,,,0.00,meteohub,2013-02-10 11:35:00,
2013-02-10 03:41:00,27.7,30.2,30.23,West,280,0.0,0.0,44,0.00,,,0.00,meteohub,2013-02-10 11:41:00,
2013-02-10 03:46:00,27.7,30.4,30.23,North,355,0.0,0.0,44,0.00,,,0.00,meteohub,2013-02-10 11:46:00,
2013-02-10 03:51:00,27.7,30.4,30.22,WNW,298,0.0,0.0,44,0.00,,,0.00,meteohub,2013-02-10 11:51:00,
2013-02-10 03:57:00,27.7,30.4,30.22,WNW,298,0.0,0.0,44,0.00,,,0.00,meteohub,2013-02-10 11:57:00,
2013-02-10 04:02:00,27.9,30.4,30.23,WSW,249,0.0,0.0,44,0.00,,,0.00,meteohub,2013-02-10 12:02:00,
2013-02-10 04:07:00,27.9,30.4,30.22,NNE,12,0.0,0.0,44,0.00,,,0.00,meteohub,2013-02-10 12:07:00,
2013-02-10 04:12:00,27.9,30.4,30.22,NW,309,0.0,0.0,44,0.00,,,0.00,meteohub,2013-02-10 12:12:00,
2013-02-10 04:17:00,27.9,30.4,30.22,WNW,288,0.0,0.0,44,0.00,,,0.00,meteohub,2013-02-10 12:17:00,
2013-02-10 04:22:00,27.9,30.4,30.22,NW,318,0.0,0.0,44,0.00,,,0.00,meteohub,2013-02-10 12:22:00,
2013-02-10 04:27:00,28.0,30.4,30.22,West,267,0.0,0.0,44,0.00,,,0.00,meteohub,2013-02-10 12:27:00,
2013-02-10 04:33:00,27.9,30.4,30.22,SW,225,0.0,0.0,44,0.00,,,0.00,meteohub,2013-02-10 12:33:00,
2013-02-10 04:38:00,27.9,29.7,30.22,WNW,297,0.0,0.0,43,0.00,,,0.00,meteohub,2013-02-10 12:38:00,
2013-02-10 04:43:00,28.0,29.7,30.22,NNE,18,0.0,0.0,43,0.00,,,0.00,meteohub,2013-02-10 12:43:00,
2013-02-10 04:49:00,28.0,29.7,30.22,West,267,0.0,0.0,43,0.00,,,0.00,meteohub,2013-02-10 12:49:00,
2013-02-10 04:54:00,27.9,29.7,30.22,WSW,243,0.0,0.0,43,0.00,,,0.00,meteohub,2013-02-10 12:54:00,
2013-02-10 04:59:00,27.9,29.7,30.22,WSW,251,0.0,0.0,43,0.00,,,0.00,meteohub,2013-02-10 12:59:00,
2013-02-10 05:05:00,27.7,29.7,30.22,WSW,253,0.0,0.0,43,0.00,,,0.00,meteohub,2013-02-10 13:05:00,
2013-02-10 05:10:00,27.9,29.7,30.22,West,264,0.0,0.0,43,0.00,,,0.00,meteohub,2013-02-10 13:10:00,
2013-02-10 05:15:00,27.9,29.5,30.22,WSW,257,0.0,0.0,43,0.00,,,0.00,meteohub,2013-02-10 13:15:00,
2013-02-10 05:21:00,27.7,29.5,30.22,WSW,242,0.0,0.0,43,0.00,,,0.00,meteohub,2013-02-10 13:21:00,
2013-02-10 05:26:00,27.7,29.5,30.22,West,274,0.0,0.0,43,0.00,,,0.00,meteohub,2013-02-10 13:26:00,
2013-02-10 05:31:00,27.5,29.5,30.22,WSW,253,0.0,0.0,43,0.00,,,0.00,meteohub,2013-02-10 13:31:00,
2013-02-10 05:37:00,27.5,29.5,30.22,WSW,252,0.0,0.0,43,0.00,,,0.00,meteohub,2013-02-10 13:37:00,
2013-02-10 05:42:00,27.5,29.3,30.22,WSW,240,0.0,0.0,43,0.00,,,0.00,meteohub,2013-02-10 13:42:00,
2013-02-10 05:47:00,27.5,29.3,30.22,WSW,245,0.0,0.0,43,0.00,,,0.00,meteohub,2013-02-10 13:47:00,
2013-02-10 05:52:00,27.3,29.3,30.22,North,353,0.0,0.0,43,0.00,,,0.00,meteohub,2013-02-10 13:52:00,
2013-02-10 05:57:00,27.3,29.3,30.22,WSW,252,0.0,0.0,43,0.00,,,0.00,meteohub,2013-02-10 13:57:00,
2013-02-10 06:02:00,27.1,29.3,30.22,WSW,246,0.0,0.0,43,0.00,,,0.00,meteohub,2013-02-10 14:02:00,
2013-02-10 06:08:00,27.1,29.1,30.22,WSW,249,0.0,0.0,43,0.00,,,0.00,meteohub,2013-02-10 14:08:00,
2013-02-10 06:13:00,27.0,29.1,30.22,SSW,194,0.0,0.0,43,0.00,,,0.00,meteohub,2013-02-10 14:13:00,
2013-02-10 06:18:00,27.1,29.1,30.23,WSW,253,0.0,0.0,43,0.00,,,0.00,meteohub,2013-02-10 14:18:00,
2013-02-10 06:23:00,27.1,29.1,30.23,WSW,256,0.0,0.0,43,0.00,,,0.00,meteohub,2013-02-10 14:23:00,
2013-02-10 06:29:00,27.1,29.1,30.23,WSW,250,0.0,0.0,43,0.00,,,0.00,meteohub,2013-02-10 14:29:00,
2013-02-10 06:34:00,27.3,29.1,30.23,WSW,243,0.0,0.0,43,0.00,,,0.00,meteohub,2013-02-10 14:34:00,
2013-02-10 06:39:00,27.3,28.9,30.23,WSW,249,0.0,0.0,43,0.00,,,0.00,meteohub,2013-02-10 14:39:00,
2013-02-10 06:45:00,27.5,28.9,30.23,WSW,245,0.0,0.0,43,0.00,,,0.00,meteohub,2013-02-10 14:45:00,
2013-02-10 06:50:00,27.7,28.9,30.23,West,276,0.0,0.0,43,0.00,,,0.00,meteohub,2013-02-10 14:50:00,
2013-02-10 06:55:00,27.9,29.1,30.23,North,355,0.0,0.0,43,0.00,,,0.00,meteohub,2013-02-10 14:55:00,
2013-02-10 07:01:00,27.9,29.1,30.23,NNW,333,0.0,0.0,43,0.00,,,0.00,meteohub,2013-02-10 15:01:00,
2013-02-10 07:06:00,28.0,29.3,30.23,West,276,0.0,0.0,43,0.00,,,0.00,meteohub,2013-02-10 15:06:00,
2013-02-10 07:11:00,28.0,29.3,30.23,West,262,0.0,0.0,43,0.00,,,0.00,meteohub,2013-02-10 15:11:00,
2013-02-10 07:16:00,28.0,29.5,30.22,SW,235,0.0,0.0,43,0.00,,,0.00,meteohub,2013-02-10 15:16:00,
2013-02-10 07:21:00,28.2,30.2,30.23,SW,232,0.0,0.0,44,0.00,,,0.00,meteohub,2013-02-10 15:21:00,
2013-02-10 07:26:00,28.6,30.4,30.23,West,267,0.0,0.0,44,0.00,,,0.00,meteohub,2013-02-10 15:26:00,
2013-02-10 07:32:00,28.6,30.0,30.23,WSW,239,0.0,0.0,43,0.00,,,0.00,meteohub,2013-02-10 15:32:00,
2013-02-10 07:37:00,28.6,30.0,30.23,WSW,243,0.0,0.0,43,0.00,,,0.00,meteohub,2013-02-10 15:37:00,
2013-02-10 07:42:00,28.9,30.6,30.23,West,267,0.0,0.0,44,0.00,,,0.00,meteohub,2013-02-10 15:42:00,
2013-02-10 07:47:00,28.9,30.6,30.23,WSW,240,0.0,0.0,44,0.00,,,0.00,meteohub,2013-02-10 15:47:00,
2013-02-10 07:53:00,29.1,30.6,30.23,SSW,203,0.0,0.0,44,0.00,,,0.00,meteohub,2013-02-10 15:53:00,
2013-02-10 07:58:00,29.1,30.4,30.24,WSW,240,0.0,0.0,44,0.00,,,0.00,meteohub,2013-02-10 15:58:00,
2013-02-10 08:03:00,29.5,30.4,30.24,WSW,246,0.0,0.0,44,0.00,,,0.00,meteohub,2013-02-10 16:03:00,
2013-02-10 08:08:00,29.5,30.4,30.24,WSW,246,0.0,0.0,44,0.00,,,0.00,meteohub,2013-02-10 16:08:00,
2013-02-10 08:13:00,29.1,30.4,30.24,WSW,239,0.0,0.0,44,0.00,,,0.00,meteohub,2013-02-10 16:13:00,
2013-02-10 08:18:00,29.3,29.8,30.24,WSW,257,0.0,0.0,43,0.00,,,0.00,meteohub,2013-02-10 16:18:00,
2013-02-10 08:23:00,29.5,29.8,30.24,West,269,0.0,0.0,43,0.00,,,0.00,meteohub,2013-02-10 16:23:00,
2013-02-10 08:28:00,29.5,29.8,30.24,West,271,0.0,0.0,43,0.00,,,0.00,meteohub,2013-02-10 16:28:00,
2013-02-10 08:34:00,29.5,29.8,30.24,WSW,249,0.0,0.0,43,0.00,,,0.00,meteohub,2013-02-10 16:34:00,
2013-02-10 08:39:00,29.5,29.8,30.24,West,280,0.0,0.0,43,0.00,,,0.00,meteohub,2013-02-10 16:39:00,
2013-02-10 08:44:00,29.5,29.8,30.24,WSW,242,0.0,0.0,43,0.00,,,0.00,meteohub,2013-02-10 16:44:00,
2013-02-10 08:49:00,29.7,29.8,30.24,WSW,242,0.0,0.0,43,0.00,,,0.00,meteohub,2013-02-10 16:49:00,
2013-02-10 08:54:00,29.5,29.8,30.24,WSW,243,0.0,0.0,43,0.00,,,0.00,meteohub,2013-02-10 16:54:00,
2013-02-10 08:59:00,29.1,29.8,30.24,WSW,249,0.0,0.0,43,0.00,,,0.00,meteohub,2013-02-10 16:59:00,
2013-02-10 09:04:00,28.9,29.8,30.24,WSW,239,0.0,0.0,43,0.00,,,0.00,meteohub,2013-02-10 17:04:00,
2013-02-10 09:09:00,28.9,29.7,30.24,WNW,283,0.0,0.0,43,0.00,,,0.00,meteohub,2013-02-10 17:09:00,
2013-02-10 09:14:00,29.1,29.7,30.24,WNW,284,0.0,0.0,43,0.00,,,0.00,meteohub,2013-02-10 17:14:00,
2013-02-10 09:20:00,29.5,29.7,30.24,SW,225,0.0,0.0,43,0.00,,,0.00,meteohub,2013-02-10 17:20:00,
2013-02-10 09:25:00,29.5,29.7,30.24,WNW,284,0.0,0.0,43,0.00,,,0.00,meteohub,2013-02-10 17:25:00,
2013-02-10 09:30:00,29.7,29.7,30.24,WSW,243,0.0,0.0,43,0.00,,,0.00,meteohub,2013-02-10 17:30:00,
2013-02-10 09:35:00,30.0,29.7,30.23,WNW,283,0.0,0.0,43,0.00,,,0.00,meteohub,2013-02-10 17:35:00,
2013-02-10 09:40:00,30.0,29.7,30.23,WSW,240,0.0,0.0,43,0.00,,,0.00,meteohub,2013-02-10 17:40:00,
2013-02-10 09:45:00,30.4,29.7,30.23,West,267,0.0,0.0,43,0.00,,,0.00,meteohub,2013-02-10 17:45:00,
2013-02-10 09:50:00,30.6,29.7,30.23,WSW,243,0.0,0.0,43,0.00,,,0.00,meteohub,2013-02-10 17:50:00,
2013-02-10 09:56:00,30.6,29.7,30.23,NW,316,0.0,0.0,43,0.00,,,0.00,meteohub,2013-02-10 17:56:00,
2013-02-10 10:01:00,30.6,29.7,30.23,West,269,0.0,0.0,43,0.00,,,0.00,meteohub,2013-02-10 18:01:00,
2013-02-10 10:06:00,30.6,29.7,30.23,West,263,0.0,0.0,43,0.00,,,0.00,meteohub,2013-02-10 18:06:00,
2013-02-10 10:11:00,30.6,29.7,30.23,NNW,347,0.0,0.0,43,0.00,,,0.00,meteohub,2013-02-10 18:11:00,
2013-02-10 10:16:00,30.7,29.7,30.24,SSW,202,0.0,0.0,43,0.00,,,0.00,meteohub,2013-02-10 18:16:00,
2013-02-10 10:21:00,30.7,29.7,30.24,West,266,0.0,0.0,43,0.00,,,0.00,meteohub,2013-02-10 18:21:00,
2013-02-10 10:27:00,30.7,29.7,30.24,NW,305,0.0,0.0,43,0.00,,,0.00,meteohub,2013-02-10 18:27:00,
2013-02-10 10:32:00,30.7,29.7,30.24,NNW,330,0.0,0.0,43,0.00,,,0.00,meteohub,2013-02-10 18:32:00,
2013-02-10 10:37:00,30.7,29.7,30.24,WSW,249,0.0,0.0,43,0.00,,,0.00,meteohub,2013-02-10 18:37:00,
2013-02-10 10:42:00,30.7,29.7,30.24,West,280,0.0,0.0,43,0.00,,,0.00,meteohub,2013-02-10 18:42:00,
2013-02-10 10:48:00,30.7,29.5,30.24,NW,321,0.0,0.0,43,0.00,,,0.00,meteohub,2013-02-10 18:48:00,
2013-02-10 10:53:00,30.7,29.5,30.24,WSW,246,0.0,0.0,43,0.00,,,0.00,meteohub,2013-02-10 18:53:00,
2013-02-10 10:58:00,30.7,29.5,30.24,NW,314,0.0,0.0,43,0.00,,,0.00,meteohub,2013-02-10 18:58:00,
2013-02-10 11:03:00,30.7,29.5,30.24,WSW,250,0.0,0.0,43,0.00,,,0.00,meteohub,2013-02-10 19:03:00,
2013-02-10 11:08:00,30.6,29.5,30.25,WSW,238,0.0,0.0,43,0.00,,,0.00,meteohub,2013-02-10 19:08:00,
2013-02-10 11:14:00,30.6,29.5,30.23,SSW,210,0.0,0.0,43,0.00,,,0.00,meteohub,2013-02-10 19:14:00,
2013-02-10 11:19:00,30.7,29.5,30.23,WNW,285,0.0,0.0,43,0.00,,,0.00,meteohub,2013-02-10 19:19:00,
2013-02-10 11:24:00,30.9,30.0,30.23,SW,214,0.0,0.0,44,0.00,,,0.00,meteohub,2013-02-10 19:24:00,
2013-02-10 11:29:00,30.9,30.0,30.23,West,264,0.0,0.0,44,0.00,,,0.00,meteohub,2013-02-10 19:29:00,
2013-02-10 11:35:00,31.1,30.0,30.22,NW,315,0.0,0.0,44,0.00,,,0.00,meteohub,2013-02-10 19:35:00,
2013-02-10 11:40:00,30.9,30.0,30.22,SSW,194,0.0,0.0,44,0.00,,,0.00,meteohub,2013-02-10 19:40:00,
2013-02-10 11:45:00,30.7,30.0,30.22,WSW,257,0.0,0.0,44,0.00,,,0.00,meteohub,2013-02-10 19:45:00,
2013-02-10 11:51:00,30.7,30.0,30.22,SSW,203,0.0,0.0,44,0.00,,,0.00,meteohub,2013-02-10 19:51:00,
2013-02-10 11:57:00,30.7,30.0,30.22,ESE,109,0.0,0.0,44,0.00,,,0.00,meteohub,2013-02-10 19:57:00,
2013-02-10 12:02:00,30.7,30.0,30.22,SW,235,0.0,0.0,44,0.00,,,0.00,meteohub,2013-02-10 20:02:00,
2013-02-10 12:07:00,30.7,30.0,30.22,WSW,255,0.0,0.0,44,0.00,,,0.00,meteohub,2013-02-10 20:07:00,
2013-02-10 12:12:00,30.7,30.0,30.22,North,356,0.0,0.0,44,0.00,,,0.00,meteohub,2013-02-10 20:12:00,
2013-02-10 12:17:00,30.9,30.0,30.22,WSW,256,0.0,0.0,44,0.00,,,0.00,meteohub,2013-02-10 20:17:00,
2013-02-10 12:23:00,31.1,30.0,30.21,West,281,0.0,0.0,44,0.00,,,0.00,meteohub,2013-02-10 20:23:00,
2013-02-10 12:28:00,31.3,30.0,30.21,West,278,0.0,0.0,44,0.00,,,0.00,meteohub,2013-02-10 20:28:00,
2013-02-10 12:34:00,31.5,30.0,30.21,SE,128,0.0,0.0,44,0.00,,,0.00,meteohub,2013-02-10 20:34:00,
2013-02-10 12:39:00,31.5,29.8,30.21,WSW,242,0.0,0.0,44,0.00,,,0.00,meteohub,2013-02-10 20:39:00,
2013-02-10 12:44:00,31.5,30.0,30.21,WSW,239,0.0,0.0,44,0.00,,,0.00,meteohub,2013-02-10 20:44:00,
2013-02-10 12:49:00,31.5,29.8,30.21,WSW,244,0.0,0.0,44,0.00,,,0.00,meteohub,2013-02-10 20:49:00,
2013-02-10 12:54:00,31.5,29.8,30.21,WSW,255,0.0,0.0,44,0.00,,,0.00,meteohub,2013-02-10 20:54:00,
2013-02-10 13:00:00,31.5,29.8,30.21,WNW,289,0.0,0.0,44,0.00,,,0.00,meteohub,2013-02-10 21:00:00,
2013-02-10 13:05:00,31.5,29.8,30.21,WNW,294,0.0,0.0,44,0.00,,,0.00,meteohub,2013-02-10 21:05:00,
2013-02-10 13:10:00,31.5,29.8,30.21,WSW,253,0.0,0.0,44,0.00,,,0.00,meteohub,2013-02-10 21:10:00,
2013-02-10 13:15:00,31.5,29.8,30.21,WSW,242,0.0,0.0,44,0.00,,,0.00,meteohub,2013-02-10 21:15:00,
2013-02-10 13:21:00,31.3,29.8,30.21,WSW,248,0.0,0.0,44,0.00,,,0.00,meteohub,2013-02-10 21:21:00,
2013-02-10 13:26:00,31.3,29.8,30.21,NNE,28,0.0,0.0,44,0.00,,,0.00,meteohub,2013-02-10 21:26:00,
2013-02-10 13:31:00,31.3,29.8,30.20,West,262,0.0,0.0,44,0.00,,,0.00,meteohub,2013-02-10 21:31:00,
2013-02-10 13:37:00,31.3,29.8,30.20,SW,219,0.0,0.0,44,0.00,,,0.00,meteohub,2013-02-10 21:37:00,
2013-02-10 13:42:00,31.3,29.8,30.20,West,274,0.0,0.0,44,0.00,,,0.00,meteohub,2013-02-10 21:42:00,
2013-02-10 13:47:00,31.3,29.8,30.20,West,277,0.0,0.0,44,0.00,,,0.00,meteohub,2013-02-10 21:47:00,
2013-02-10 13:52:00,31.3,29.8,30.20,WSW,240,0.0,0.0,44,0.00,,,0.00,meteohub,2013-02-10 21:52:00,
2013-02-10 13:57:00,31.1,29.8,30.20,SW,231,0.0,0.0,44,0.00,,,0.00,meteohub,2013-02-10 21:57:00,
2013-02-10 14:02:00,30.9,29.8,30.20,ENE,57,0.0,0.0,44,0.00,,,0.00,meteohub,2013-02-10 22:02:00,
2013-02-10 14:07:00,30.9,29.8,30.20,NNE,19,0.0,0.0,44,0.00,,,0.00,meteohub,2013-02-10 22:07:00,
2013-02-10 14:12:00,30.9,29.8,30.20,WSW,249,0.0,0.0,44,0.00,,,0.00,meteohub,2013-02-10 22:12:00,
2013-02-10 14:17:00,30.9,29.8,30.20,WSW,255,0.0,0.0,44,0.00,,,0.00,meteohub,2013-02-10 22:17:00,
2013-02-10 14:22:00,30.9,29.8,30.20,West,259,0.0,0.0,44,0.00,,,0.00,meteohub,2013-02-10 22:22:00,
2013-02-10 14:28:00,30.9,29.8,30.20,WNW,283,0.0,0.0,44,0.00,,,0.00,meteohub,2013-02-10 22:28:00,
2013-02-10 14:33:00,30.9,29.7,30.20,SSW,203,0.0,0.0,44,0.00,,,0.00,meteohub,2013-02-10 22:33:00,
2013-02-10 14:38:00,30.9,29.7,30.20,West,270,0.0,0.0,44,0.00,,,0.00,meteohub,2013-02-10 22:38:00,
2013-02-10 14:43:00,30.9,29.7,30.20,WSW,248,0.0,0.0,44,0.00,,,0.00,meteohub,2013-02-10 22:43:00,
2013-02-10 14:48:00,30.9,29.7,30.20,North,357,0.0,0.0,44,0.00,,,0.00,meteohub,2013-02-10 22:48:00,
2013-02-10 14:54:00,30.9,29.7,30.20,NE,34,0.0,0.0,44,0.00,,,0.00,meteohub,2013-02-10 22:54:00,
2013-02-10 14:59:00,30.9,29.7,30.20,WSW,252,0.0,0.0,44,0.00,,,0.00,meteohub,2013-02-10 22:59:00,
2013-02-10 15:04:00,30.9,29.7,30.21,WNW,297,0.0,0.0,44,0.00,,,0.00,meteohub,2013-02-10 23:04:00,
2013-02-10 15:10:00,30.9,29.7,30.20,WNW,293,0.0,0.0,44,0.00,,,0.00,meteohub,2013-02-10 23:10:00,
2013-02-10 15:15:00,30.7,29.7,30.20,SSW,195,0.0,0.0,44,0.00,,,0.00,meteohub,2013-02-10 23:15:00,
2013-02-10 15:20:00,30.6,29.7,30.20,West,269,0.0,0.0,44,0.00,,,0.00,meteohub,2013-02-10 23:20:00,
2013-02-10 15:25:00,30.6,29.7,30.20,North,9,0.0,0.0,44,0.00,,,0.00,meteohub,2013-02-10 23:25:00,
2013-02-10 15:31:00,30.6,29.7,30.21,WSW,242,0.0,0.0,44,0.00,,,0.00,meteohub,2013-02-10 23:31:00,
2013-02-10 15:36:00,30.6,29.7,30.20,WSW,239,0.0,0.0,44,0.00,,,0.00,meteohub,2013-02-10 23:36:00,
2013-02-10 15:41:00,30.6,29.8,30.20,WSW,238,0.0,0.0,44,0.00,,,0.00,meteohub,2013-02-10 23:41:00,
2013-02-10 15:46:00,30.6,30.6,30.20,WSW,240,0.0,0.0,45,0.00,,,0.00,meteohub,2013-02-10 23:46:00,
2013-02-10 15:51:00,30.6,30.6,30.20,WSW,257,0.0,0.0,45,0.00,,,0.00,meteohub,2013-02-10 23:51:00,
2013-02-10 15:57:00,30.4,30.7,30.20,NW,307,0.0,0.0,45,0.00,,,0.00,meteohub,2013-02-10 23:57:00,
2013-02-10 16:02:00,30.4,30.9,30.20,NNW,339,0.0,0.0,45,0.00,,,0.00,meteohub,2013-02-11 00:02:00,
2013-02-10 16:07:00,30.4,30.9,30.20,WSW,243,0.0,0.0,45,0.00,,,0.00,meteohub,2013-02-11 00:07:00,
2013-02-10 16:12:00,30.4,30.9,30.20,SW,225,0.0,0.0,45,0.00,,,0.00,meteohub,2013-02-11 00:12:00,
2013-02-10 16:17:00,30.4,30.9,30.20,WSW,242,0.0,0.0,45,0.00,,,0.00,meteohub,2013-02-11 00:17:00,
2013-02-10 16:22:00,30.4,30.9,30.20,WSW,240,0.0,0.0,45,0.00,,,0.00,meteohub,2013-02-11 00:22:00,
2013-02-10 16:28:00,30.6,30.9,30.20,WSW,243,0.0,0.0,45,0.00,,,0.00,meteohub,2013-02-11 00:28:00,
2013-02-10 16:33:00,30.6,30.9,30.21,WSW,240,0.0,0.0,45,0.00,,,0.00,meteohub,2013-02-11 00:33:00,
2013-02-10 16:38:00,30.6,30.9,30.21,WSW,245,0.0,0.0,45,0.00,,,0.00,meteohub,2013-02-11 00:38:00,
2013-02-10 16:43:00,30.6,30.9,30.20,WSW,243,0.0,0.0,45,0.00,,,0.00,meteohub,2013-02-11 00:43:00,
2013-02-10 16:48:00,30.6,30.9,30.20,WSW,240,0.0,0.0,45,0.00,,,0.00,meteohub,2013-02-11 00:48:00,
2013-02-10 16:53:00,30.4,30.9,30.21,WSW,253,0.0,0.0,45,0.00,,,0.00,meteohub,2013-02-11 00:53:00,
2013-02-10 16:59:00,30.4,30.9,30.21,WSW,245,0.0,0.0,45,0.00,,,0.00,meteohub,2013-02-11 00:59:00,
2013-02-10 17:04:00,30.4,30.9,30.20,SW,235,0.0,0.0,45,0.00,,,0.00,meteohub,2013-02-11 01:04:00,
2013-02-10 17:09:00,30.4,30.9,30.20,SW,232,0.0,0.0,45,0.00,,,0.00,meteohub,2013-02-11 01:09:00,
2013-02-10 17:14:00,30.2,30.4,30.20,WSW,249,0.0,0.0,44,0.00,,,0.00,meteohub,2013-02-11 01:14:00,
2013-02-10 17:19:00,30.2,30.4,30.20,SSW,212,0.0,0.0,44,0.00,,,0.00,meteohub,2013-02-11 01:19:00,
2013-02-10 17:24:00,30.2,30.4,30.20,WSW,248,0.0,0.0,44,0.00,,,0.00,meteohub,2013-02-11 01:24:00,
2013-02-10 17:29:00,30.2,30.4,30.20,WSW,249,0.0,0.0,44,0.00,,,0.00,meteohub,2013-02-11 01:29:00,
2013-02-10 17:34:00,30.2,30.4,30.20,SW,233,0.0,0.0,44,0.00,,,0.00,meteohub,2013-02-11 01:34:00,
2013-02-10 17:39:00,30.2,30.2,30.20,WNW,295,0.0,0.0,44,0.00,,,0.00,meteohub,2013-02-11 01:39:00,
2013-02-10 17:44:00,30.2,30.2,30.20,WSW,249,0.0,0.0,44,0.00,,,0.00,meteohub,2013-02-11 01:44:00,
2013-02-10 17:50:00,30.2,30.2,30.20,WSW,252,0.0,0.0,44,0.00,,,0.00,meteohub,2013-02-11 01:50:00,
2013-02-10 17:55:00,30.2,30.2,30.20,WSW,255,0.0,0.0,44,0.00,,,0.00,meteohub,2013-02-11 01:55:00,
2013-02-10 18:00:00,30.2,30.2,30.19,West,269,0.0,0.0,44,0.00,,,0.00,meteohub,2013-02-11 02:00:00,
2013-02-10 18:05:00,30.2,30.2,30.19,WNW,294,0.0,0.0,44,0.00,,,0.00,meteohub,2013-02-11 02:05:00,
2013-02-10 18:10:00,30.2,30.2,30.19,West,262,0.0,0.0,44,0.00,,,0.00,meteohub,2013-02-11 02:10:00,
2013-02-10 18:16:00,30.0,30.2,30.19,SW,228,0.0,0.0,44,0.00,,,0.00,meteohub,2013-02-11 02:16:00,
2013-02-10 18:21:00,30.0,30.0,30.20,WSW,252,0.0,0.0,44,0.00,,,0.00,meteohub,2013-02-11 02:21:00,
2013-02-10 18:26:00,30.0,30.0,30.20,West,264,0.0,0.0,44,0.00,,,0.00,meteohub,2013-02-11 02:26:00,
2013-02-10 18:31:00,30.0,30.0,30.20,East,99,0.0,0.0,44,0.00,,,0.00,meteohub,2013-02-11 02:31:00,
2013-02-10 18:36:00,30.0,30.0,30.21,WNW,295,0.0,0.0,44,0.00,,,0.00,meteohub,2013-02-11 02:36:00,
2013-02-10 18:41:00,30.0,30.0,30.22,WSW,252,0.0,0.0,44,0.00,,,0.00,meteohub,2013-02-11 02:41:00,
2013-02-10 18:46:00,30.0,30.0,30.21,NNE,30,0.0,0.0,44,0.00,,,0.00,meteohub,2013-02-11 02:46:00,
2013-02-10 18:51:00,29.8,29.8,30.21,WSW,255,0.0,0.0,44,0.00,,,0.00,meteohub,2013-02-11 02:51:00,
2013-02-10 18:56:00,29.8,29.8,30.21,SW,225,0.0,0.0,44,0.00,,,0.00,meteohub,2013-02-11 02:56:00,
2013-02-10 19:01:00,29.8,29.8,30.21,WSW,248,0.0,0.0,44,0.00,,,0.00,meteohub,2013-02-11 03:01:00,
2013-02-10 19:06:00,29.8,29.8,30.21,West,280,0.0,0.0,44,0.00,,,0.00,meteohub,2013-02-11 03:06:00,
2013-02-10 19:11:00,29.8,29.8,30.22,SW,219,0.0,0.0,44,0.00,,,0.00,meteohub,2013-02-11 03:11:00,
2013-02-10 19:16:00,29.8,29.8,30.22,SW,224,0.0,0.0,44,0.00,,,0.00,meteohub,2013-02-11 03:16:00,
2013-02-10 19:21:00,30.0,29.8,30.22,WSW,253,0.0,0.0,44,0.00,,,0.00,meteohub,2013-02-11 03:21:00,
2013-02-10 19:27:00,30.0,29.8,30.22,WSW,250,0.0,0.0,44,0.00,,,0.00,meteohub,2013-02-11 03:27:00,
2013-02-10 19:32:00,30.0,29.7,30.22,WSW,249,0.0,0.0,44,0.00,,,0.00,meteohub,2013-02-11 03:32:00,
2013-02-10 19:37:00,30.0,29.7,30.22,WSW,249,0.0,0.0,44,0.00,,,0.00,meteohub,2013-02-11 03:37:00,
2013-02-10 19:42:00,30.0,29.7,30.22,SW,236,0.0,0.0,44,0.00,,,0.00,meteohub,2013-02-11 03:42:00,
2013-02-10 19:47:00,30.0,29.7,30.22,WSW,250,0.0,0.0,44,0.00,,,0.00,meteohub,2013-02-11 03:47:00,
2013-02-10 19:52:00,30.0,29.7,30.22,SW,228,0.0,0.0,44,0.00,,,0.00,meteohub,2013-02-11 03:52:00,
2013-02-10 19:58:00,30.0,29.7,30.22,WSW,246,0.0,0.0,44,0.00,,,0.00,meteohub,2013-02-11 03:58:00,
2013-02-10 20:03:00,29.8,29.7,30.22,WSW,246,0.0,0.0,44,0.00,,,0.00,meteohub,2013-02-11 04:03:00,
2013-02-10 20:08:00,29.8,29.8,30.22,West,274,0.0,0.0,44,0.00,,,0.00,meteohub,2013-02-11 04:08:00,
2013-02-10 20:13:00,29.8,29.8,30.22,WSW,248,0.0,0.0,44,0.00,,,0.00,meteohub,2013-02-11 04:13:00,
2013-02-10 20:18:00,29.7,30.0,30.23,West,259,0.0,0.0,44,0.00,,,0.00,meteohub,2013-02-11 04:18:00,
2013-02-10 20:24:00,29.7,30.7,30.23,NW,315,0.0,0.0,45,0.00,,,0.00,meteohub,2013-02-11 04:24:00,
2013-02-10 20:29:00,29.7,30.7,30.23,WNW,285,0.0,0.0,45,0.00,,,0.00,meteohub,2013-02-11 04:29:00,
2013-02-10 20:34:00,29.7,30.9,30.23,West,267,0.0,0.0,45,0.00,,,0.00,meteohub,2013-02-11 04:34:00,
2013-02-10 20:39:00,29.5,30.9,30.23,WSW,249,0.0,0.0,45,0.00,,,0.00,meteohub,2013-02-11 04:39:00,
2013-02-10 20:44:00,29.5,30.9,30.23,SW,231,0.0,0.0,45,0.00,,,0.00,meteohub,2013-02-11 04:44:00,
2013-02-10 20:49:00,29.5,30.7,30.23,WSW,242,0.0,0.0,45,0.00,,,0.00,meteohub,2013-02-11 04:49:00,
2013-02-10 20:55:00,29.5,30.7,30.23,WSW,248,0.0,0.0,45,0.00,,,0.00,meteohub,2013-02-11 04:55:00,
2013-02-10 21:00:00,29.5,30.7,30.23,WSW,245,0.0,0.0,45,0.00,,,0.00,meteohub,2013-02-11 05:00:00,
2013-02-10 21:01:00,29.5,30.7,30.23,West,262,0.0,0.0,45,0.00,,,0.00,meteohub,2013-02-11 05:01:00,
2013-02-10 21:04:00,29.5,30.7,30.23,WSW,245,0.0,0.0,45,0.00,,,0.00,meteohub,2013-02-11 05:04:00,
2013-02-10 21:10:00,29.5,30.7,30.23,WSW,245,0.0,0.0,45,0.00,,,0.00,meteohub,2013-02-11 05:10:00,
2013-02-10 21:15:00,29.3,30.2,30.23,WSW,258,0.0,0.0,44,0.00,,,0.00,meteohub,2013-02-11 05:15:00,
2013-02-10 21:20:00,29.3,30.2,30.23,WSW,248,0.0,0.0,44,0.00,,,0.00,meteohub,2013-02-11 05:20:00,
2013-02-10 21:25:00,29.3,30.2,30.23,SW,231,0.0,0.0,44,0.00,,,0.00,meteohub,2013-02-11 05:25:00,
2013-02-10 21:30:00,29.3,30.2,30.23,WSW,250,0.0,0.0,44,0.00,,,0.00,meteohub,2013-02-11 05:30:00,
2013-02-10 21:35:00,29.3,30.2,30.23,WSW,249,0.0,0.0,44,0.00,,,0.00,meteohub,2013-02-11 05:35:00,
2013-02-10 21:40:00,29.1,30.2,30.23,WSW,243,0.0,0.0,44,0.00,,,0.00,meteohub,2013-02-11 05:40:00,
2013-02-10 21:45:00,29.1,30.2,30.23,WSW,242,0.0,0.0,44,0.00,,,0.00,meteohub,2013-02-11 05:45:00,
2013-02-10 21:51:00,29.1,30.2,30.23,WSW,248,0.0,0.0,44,0.00,,,0.00,meteohub,2013-02-11 05:51:00,
2013-02-10 21:56:00,28.9,30.2,30.23,SW,236,0.0,0.0,44,0.00,,,0.00,meteohub,2013-02-11 05:56:00,
2013-02-10 22:02:00,28.9,30.0,30.23,WSW,256,0.0,0.0,44,0.00,,,0.00,meteohub,2013-02-11 06:02:00,
2013-02-10 22:07:00,28.8,30.0,30.23,WSW,245,0.0,0.0,44,0.00,,,0.00,meteohub,2013-02-11 06:07:00,
2013-02-10 22:12:00,28.8,30.0,30.23,SW,225,0.0,0.0,44,0.00,,,0.00,meteohub,2013-02-11 06:12:00,
2013-02-10 22:17:00,28.6,30.0,30.24,WSW,245,0.0,0.0,44,0.00,,,0.00,meteohub,2013-02-11 06:17:00,
2013-02-10 22:22:00,28.8,30.0,30.23,WSW,243,0.0,0.0,44,0.00,,,0.00,meteohub,2013-02-11 06:22:00,
2013-02-10 22:27:00,28.8,30.0,30.23,SW,236,0.0,0.0,44,0.00,,,0.00,meteohub,2013-02-11 06:27:00,
2013-02-10 22:32:00,28.9,30.0,30.23,WSW,252,0.0,0.0,44,0.00,,,0.00,meteohub,2013-02-11 06:32:00,
2013-02-10 22:37:00,28.9,29.8,30.23,WSW,238,0.0,0.0,44,0.00,,,0.00,meteohub,2013-02-11 06:37:00,
2013-02-10 22:42:00,28.9,29.8,30.23,WSW,246,0.0,0.0,44,0.00,,,0.00,meteohub,2013-02-11 06:42:00,
2013-02-10 22:47:00,28.9,29.8,30.23,WSW,243,0.0,0.0,44,0.00,,,0.00,meteohub,2013-02-11 06:47:00,
2013-02-10 22:53:00,29.1,29.8,30.23,West,260,0.0,0.0,44,0.00,,,0.00,meteohub,2013-02-11 06:53:00,
2013-02-10 22:58:00,29.1,29.8,30.23,WSW,255,0.0,0.0,44,0.00,,,0.00,meteohub,2013-02-11 06:58:00,
2013-02-10 23:04:00,29.1,29.1,30.23,SW,236,0.0,0.0,43,0.00,,,0.00,meteohub,2013-02-11 07:04:00,
2013-02-10 23:09:00,29.1,29.8,30.24,WSW,249,0.0,0.0,44,0.00,,,0.00,meteohub,2013-02-11 07:09:00,
2013-02-10 23:14:00,29.1,29.1,30.23,SW,231,0.0,0.0,43,0.00,,,0.00,meteohub,2013-02-11 07:14:00,
2013-02-10 23:19:00,29.1,29.1,30.24,WSW,243,0.0,0.0,43,0.00,,,0.00,meteohub,2013-02-11 07:19:00,
2013-02-10 23:24:00,29.1,29.1,30.23,WSW,252,0.0,0.0,43,0.00,,,0.00,meteohub,2013-02-11 07:24:00,
2013-02-10 23:30:00,29.1,29.1,30.23,SW,235,0.0,0.0,43,0.00,,,0.00,meteohub,2013-02-11 07:30:00,
2013-02-10 23:35:00,28.9,29.1,30.24,WSW,250,0.0,0.0,43,0.00,,,0.00,meteohub,2013-02-11 07:35:00,
2013-02-10 23:40:00,28.9,29.1,30.23,WSW,246,0.0,0.0,43,0.00,,,0.00,meteohub,2013-02-11 07:40:00,
2013-02-10 23:45:00,28.8,29.1,30.23,WSW,238,0.0,0.0,43,0.00,,,0.00,meteohub,2013-02-11 07:45:00,
2013-02-10 23:50:00,28.8,28.9,30.23,WSW,251,0.0,0.0,43,0.00,,,0.00,meteohub,2013-02-11 07:50:00,
2013-02-10 23:56:00,28.8,28.9,30.23,WSW,246,0.0,0.0,43,0.00,,,0.00,meteohub,2013-02-11 07:56:00,